Погода в Староверовке

Украина / Харьковская область     49°41′20″N   37°25′51″E
темп.,
°C
ветер,
м/с
пор.,
м/с
влажн.,
%
обл.,
%
осадки,
мм/ч
давл.,
гПа
погр.,
м
18 августа, чт
чт1800:00+22всв510515 0.0 1007279
03:00+20св3651100 0.0 1007102
06:00+19св2360100 0.4 100856
09:00+23всв1146100 0.8 1008276
12:00+29зюз223596 0.0 1008851
15:00+32ююз222986 0.0 10072113
18:00+31с013061 0.0 10071779
21:00+23ссв23571 0.3 100726
19 августа, пт
пт1900:00+21св33695 0.0 100851
03:00+19св510821 0.0 1009255
06:00+18св510815 0.1 1010313
09:00+23всв5759100 0.1 1010668
12:00+29в4446100 0.0 10101330
15:00+31в433788 0.1 10092490
18:00+27св8115492 0.6 1010713
21:00+19в3687100 2.6 1013196
20 августа, сб
сб2000:00+18всв3691100 0.0 1013131
03:00+18в3792100 0.0 1013166
06:00+18всв41189100 1.1 1014303
09:00+23вюв61355100 1.5 1015795
12:00+23в51142100 0.0 1016805
15:00+28всв7113299 0.0 10141488
18:00+29юв51035100 0.0 1013456
21:00+25юв51346100 0.0 1015576
21 августа, вс
вс2100:00+26вюв81430100 0.1 1015959
03:00+24вюв71330100 0.1 1016833
06:00+22вюв71331100 0.0 1016677
09:00+25вюв8122792 0.0 1016800
12:00+29вюв8111856 0.0 10161603
15:00+31вюв91115100 0.0 10152209
18:00+29в8121799 0.0 10151374
21:00+25в61319100 0.0 1015327
22 августа, пн
пн2200:00+23в61518100 0.0 1015356
03:00+22в6152299 0.0 1015419
06:00+21в61433100 0.0 1015549
09:00+25вюв91334100 0.0 1016949
12:00+29вюв101426100 0.0 10151857
15:00+32вюв101319100 0.0 10142652
18:00+31в91320100 0.0 10141743
21:00+27в7152270 0.0 1015495